SCP
-0 -0 -0 -0 -0 -0 -0 -0 -0 -0 -0 -0 -0 -0 -0 -0 -0 -0 -0 -0 -0 -0 -0 -0 -0 -0 -0 -0 -0 -0 -0 -0 -0 -0 -0 -0 0 0 0 0 -0 -0 0
-0 -0 -0 -0 -0 -0 -0 -0 -0 -0 -0 -0 -0 -0 -0 -0 -0 -0 -0 -0 -0 -0 -0 -0 -0 -0 -0 -0 -0 -0 -0 -0 -0 0 0 0 0 0 0 0 0 0 0
-0 -0 -0 -0 -0 -0 -0 -0 -0 -0 -0 -0 -0 -0 -0 -0 -0 -0 -0 -0 -0 -0 -0 -0 -0 -0 -0 -0 -0 -0 0 0 -0 0 0 0 -0 0 0 0 0 0 0
-0 -0 -0 -0 -0 -0 -0 -0 -0 -0 -0 -0 -0 -0 -0 -0 -0 -0 -0 -0 -0 -0 -0 -0 -0 -0 -0 -0 -0 -0 -0 -0 -0 -0 0 -0 0 0 0 0 0 0 0
-0 -0 -0 -0 -0 -0 -0 -0 -0 -0 -0 -0 -0 -0 -0 -0 -0 -0 -0 -0 0 0 0 0 0 0 -0 -0 0 0 -0 -0 -0 -0 -0 0 -0 0 -0 -0 -0 0 0
-0 0 -0 -0 -0 -0 -0 -0 -0 -0 -0 -0 -0 -0 -0 -0 -0 -0 -0 0 0 0 0 0 0 -0 -0 0 0 0 0 0 0 -0 -0 -0 -0 0 0 0 0 0 0
-0 -0 -0 -0 -0 -0 -0 -0 -0 -0 -0 -0 -0 -0 -0 -0 -0 -0 -0 0 0 0 0 0 0 0 0 -0 -0 -0 0 0 0 0 0 -0 -0 0 0 0 0 0 0
-0 -0 -0 -0 -0 -0 -0 -0 -0 -0 -0 -0 -0 -0 0 0 0 0 0 0 0 0 0 0 0 0 -0 -0 0 0 0 0 0 0 0 0 0 0 0 0 0 0 0
-0 -0 0 0 -0 -0 -0 -0 -0 -0 -0 -0 -0 -0 0 0 0 0 0 0 0 0 0 0 0 0 0 0 0 0 0 0 0 0 0 0 0 0 0 0 0 0 0
-0 0 0 0 -0 -0 -0 -0 -0 0 -0 0 0 0 0 0 0 0 0 0 0 0 0 0 0 0 0 0 0 0 0 0 0 0 0 0 0 0 0 0 0 0 0
0 0 0 0 -0 0 0 -0 0 0 0 0 0 0 0 0 0 0 0 0 0 0 0 0 0 0 0 0 0 0 0 0 0 0 0 0 0 0 0 0 0 0 0
0 -0 0 0 -0 -0 -0 -0 -0 0 0 0 0 0 0 0 0 0 0 0 0 0 0 0 0 0 0 0 0 0 0 0 0 0 0 0 0 0 0 0 0 0 0
-0 -0 -0 0 0 0 -0 -0 -0 0 0 0 -0 -0 0 0 -0 0 0 0 0 0 0 0 0 0 0 0 0 0 0 0 0 0 0 0 0 0 0 0 0 0 0
0 -0 -0 -0 -0 -0 -0 0 -0 0 0 -0 -0 0 0 0 0 0 0 0 0 0 0 0 0 0 0 0 0 0 0 0 0 0 0 0 0 0 0 0 0 0 0
0 -0 -0 -0 0 -0 0 -0 0 0 0 0 0 0 0 0 0 0 0 0 0 0 0 0 0 0 0 0 0 0 0 0 0 0 0 0 0 0 0 0 0 0 0
0 0 0 0 0 0 0 0 0 0 0 0 0 0 0 0 0 0 0 0 0 0 0 0 0 0 0 0 0 0 0 0 0 0 0 0 0 0 0 0 0 0 0
0 0 0 0 0 0 0 0 0 0 0 0 0 0 0 0 0 0 0 0 0 0 0 0 0 0 0 0 0 0 0 0 0 0 0 0 0 0 0 0 0 0 0
0 0 0 0 0 0 0 0 0 0 0 0 0 0 0 0 0 0 0 0 0 0 0 0 0 0 0 0 0 0 0 0 0 0 0 0 0 0 0 0 0 0 0
0 0 0 0 0 0 0 0 0 0 0 0 0 0 0 0 0 0 0 0 0 0 0 0 0 0 0 0 0 0 0 0 0 0 0 0 0 0 0 0 0 0 0
0 0 0 0 0 0 0 0 0 0 0 0 0 0 0 0 0 0 0 0 0 0 0 0 0 0 0 0 0 0 0 0 0 0 0 0 0 0 0 0 0 0 0
0 0 0 0 0 0 0 0 0 0 0 0 0 0 0 0 0 0 0 0 0 0 0 0 0 0 0 0 0 0 0 0 0 0 0 0 0 0 0 0 0 0 0
0 0 0 0 0 0 0 0 0 0 0 0 0 0 0 0 0 0 0 0 0 0 0 0 0 0 0 0 0 0 0 0 0 0 0 0 0 0 0 0 0 0 0
0 0 0 0 0 0 0 0 0 0 0 0 0 0 0 0 0 0 0 0 0 0 0 0 0 0 0 0 0 0 0 0 0 0 0 0 0 0 0 0 0 0 0
0 0 0 0 0 0 0 0 0 0 0 0 0 0 0 0 0 0 0 0 0 0 0 0 0 0 0 0 0 0 0 0 0 0 0 0 0 0 0 0 0 0 0
0 0 0 0 0 0 0 0 0 0 0 0 0 0 0 0 0 0 0 0 0 0 0 0 0 0 0 0 0 0 0 0 0 0 0 0 0 0 0 0 0 0 0
0 0 0 0 0 0 0 0 0 0 0 0 0 0 0 0 0 0 0 0 0 0 0 0 0 0 0 0 0 0 0 0 0 0 0 0 0 0 0 0 0 0 0
Wind_Speed_500mb
36 32 21 20 24 29 38 30 30 30 28 24 22 21 23 36 37 35 29 19 14 17 19 21 20 19 20 20 22 24 24 27 31 30 27 27 24 23 20 22 19 12 16
39 33 25 26 24 31 37 28 24 23 20 17 15 17 20 19 17 20 17 14 13 15 17 17 16 17 16 17 19 21 24 27 31 31 28 26 23 24 19 16 23 20 13
35 34 28 31 30 28 34 26 20 17 14 11 9 10 15 16 14 13 13 11 9 11 13 14 15 14 13 14 15 19 22 24 25 27 27 25 23 24 21 20 21 21 17
32 32 29 33 31 29 26 25 19 15 14 13 10 9 13 15 12 8 6 3 7 11 12 12 16 14 11 11 12 13 15 19 20 23 23 22 22 22 20 19 19 18 18
33 30 29 31 32 26 22 19 18 15 14 12 11 10 11 14 13 9 4 7 8 5 8 9 11 15 14 10 9 8 10 13 16 16 17 19 17 19 18 17 17 18 17
35 29 27 26 29 25 20 17 13 14 12 10 11 11 12 11 8 6 2 4 3 2 5 6 9 10 11 9 5 4 6 9 12 12 13 15 16 16 16 15 15 16 17
36 30 26 23 27 25 19 13 12 12 13 14 13 12 11 9 6 6 4 7 8 6 5 6 6 5 5 4 2 2 3 7 9 10 11 12 13 14 13 12 12 12 14
31 30 26 24 24 22 17 16 15 15 14 14 13 13 11 9 7 5 4 4 5 7 7 8 8 7 6 4 2 3 7 9 8 9 10 9 11 13 14 13 13 12 11
29 27 25 25 23 20 17 17 18 16 15 13 12 11 10 9 8 6 5 5 5 6 5 5 5 5 4 4 4 4 6 6 9 11 9 9 10 14 14 14 14 14 12
28 25 23 24 22 20 17 16 15 15 15 14 9 6 4 3 3 3 3 3 4 5 5 5 6 7 8 9 9 6 4 6 10 11 10 10 10 14 15 15 16 16 16
29 27 24 23 23 21 18 16 14 12 11 7 4 1 1 3 5 6 6 5 7 8 10 11 11 12 12 12 16 11 10 12 14 14 16 15 15 17 18 17 17 16 16
33 32 26 25 24 22 19 16 14 11 8 5 2 1 2 4 6 9 11 12 13 14 14 16 16 15 15 18 16 17 18 20 21 22 23 20 20 20 21 18 15 15 15
27 32 30 28 26 24 20 19 15 11 7 4 2 2 1 5 9 13 15 16 19 21 20 20 20 23 21 22 21 24 24 24 26 27 31 28 26 26 26 21 22 23 20
31 28 31 31 30 26 24 20 15 13 9 7 5 2 2 5 9 12 14 17 19 20 21 23 25 23 26 25 21 20 24 24 29 31 31 34 33 31 33 25 20 27 25
30 30 33 32 29 27 25 22 17 13 11 9 5 3 6 10 12 14 16 18 20 21 23 25 26 27 26 28 27 29 27 28 26 30 30 35 22 23 25 24 28 27 31
32 29 27 29 25 24 23 19 15 15 13 13 10 9 12 13 15 17 19 23 22 24 25 29 31 31 34 35 36 36 36 35 34 35 33 29 33 31 31 30 34 31 30
35 28 30 23 23 24 22 20 20 18 20 19 17 18 19 21 22 23 25 28 27 29 31 34 36 38 40 37 38 37 40 40 41 41 41 39 44 46 42 35 38 37 40
34 35 28 26 26 28 25 24 25 24 26 26 26 26 26 28 30 32 34 34 33 37 39 41 41 45 44 43 45 45 47 49 50 44 41 39 44 44 45 42 41 44 45
33 31 31 31 29 27 26 27 29 30 33 33 35 35 35 36 38 43 46 45 42 45 48 50 50 51 53 51 52 54 53 57 48 45 43 38 47 46 41 44 44 42 36
30 31 30 31 31 27 26 28 31 34 37 39 41 42 42 46 47 49 54 55 53 54 57 58 60 57 59 59 56 59 58 57 53 51 49 46 46 51 48 44 32 36 33
39 36 33 30 27 29 30 32 34 35 35 38 41 43 46 49 55 59 61 64 63 61 61 66 67 67 65 61 59 60 60 56 61 56 53 47 50 50 48 37 41 37 31
49 49 45 42 39 38 39 39 42 45 47 48 48 49 53 55 59 63 67 68 69 67 65 67 70 74 71 64 61 62 63 56 57 60 56 49 42 48 49 36 37 34 37
51 49 47 48 48 45 47 49 53 56 55 55 54 52 51 55 57 57 57 57 60 61 62 62 65 69 71 67 61 58 34 40 45 44 47 42 44 46 48 43 42 39 40
30 31 31 34 33 34 36 37 38 41 45 49 53 55 54 53 51 51 52 52 55 58 64 64 63 66 67 69 63 62 63 70 59 34 47 47 54 58 51 51 46 42 45
16 12 13 14 17 22 26 29 33 39 42 44 44 43 44 46 48 50 49 48 48 52 54 53 56 64 64 64 62 62 65 66 77 69 51 57 62 62 63 64 56 47 52
21 15 12 7 3 6 10 13 17 19 23 26 29 32 35 38 39 38 39 40 41 46 52 56 61 63 62 63 60 60 69 72 70 75 71 66 64 62 63 68 63 58 57
Wind_Direction_500mb
161 162 163 149 133 139 136 132 124 122 121 113 108 106 104 93 109 115 106 92 65 52 38 39 40 45 60 64 65 65 69 70 67 64 61 61 63 74 86 72 68 93 93
156 162 157 145 134 142 146 140 134 131 130 123 111 109 115 106 103 100 98 79 62 30 25 32 45 56 60 65 62 61 66 70 63 60 60 55 62 64 69 67 67 63 79
156 154 153 147 148 146 158 153 138 142 146 147 140 130 132 126 120 119 107 94 54 49 31 31 51 63 66 67 63 52 58 66 65 59 56 53 56 59 63 65 57 59 60
156 153 152 149 148 153 156 171 163 162 164 158 160 163 161 156 142 151 143 58 22 353 7 46 52 75 79 82 77 57 44 58 63 59 53 55 52 55 53 50 52 51 48
154 147 148 154 157 158 156 163 173 169 168 166 159 156 169 168 183 205 249 301 303 323 16 42 69 75 79 81 79 77 45 47 49 53 51 50 46 50 48 46 46 44 39
153 145 144 152 158 157 158 158 157 159 160 154 150 142 146 158 172 189 229 344 40 63 25 67 76 79 82 87 80 41 25 26 33 35 41 41 35 34 28 30 33 35 34
155 151 146 143 157 159 171 171 160 149 138 129 123 127 138 145 148 146 108 70 70 83 58 35 61 71 79 88 95 322 313 338 358 10 19 27 20 17 9 6 4 12 25
161 159 156 148 153 159 161 157 149 145 138 129 117 111 110 112 112 113 102 76 64 59 51 46 46 47 47 45 27 303 298 299 322 337 351 354 1 354 352 347 344 346 0
167 166 168 166 163 160 162 155 149 149 141 131 117 109 103 99 99 98 87 62 50 53 58 51 39 30 17 5 351 321 301 293 295 317 331 335 344 341 335 334 327 326 328
169 173 176 179 175 167 155 155 150 139 140 133 128 102 76 51 36 20 28 33 11 355 346 342 332 321 317 308 310 315 296 303 305 303 313 315 329 333 324 320 317 313 318
177 181 183 186 182 176 168 155 148 148 144 143 139 108 353 319 305 312 285 288 303 304 304 304 303 304 305 302 303 269 272 295 301 308 305 310 314 326 319 310 309 310 313
184 186 187 188 186 183 181 176 170 166 169 178 194 251 311 325 328 316 313 291 283 288 283 285 289 290 293 300 301 301 305 299 303 303 299 298 293 304 309 308 316 321 318
186 196 191 190 187 187 187 186 185 184 188 185 176 149 29 7 0 355 352 347 347 335 315 285 279 285 290 283 301 297 296 294 295 300 298 290 289 285 288 298 294 294 303
195 198 198 197 195 194 191 194 196 205 192 166 162 197 309 341 351 354 348 347 347 347 350 330 328 315 292 287 292 303 297 301 299 293 290 289 287 279 278 281 281 284 285
196 200 202 205 204 202 198 191 194 194 202 204 207 268 306 323 332 331 331 331 334 328 333 331 325 321 309 306 306 303 303 302 303 305 312 307 296 291 290 285 281 284 282
201 206 200 203 202 205 200 203 206 212 218 236 247 262 276 288 299 305 311 311 318 319 318 317 315 313 302 286 285 287 289 290 293 287 289 302 292 285 284 283 287 291 292
206 209 212 209 211 215 218 223 226 232 240 245 254 260 272 279 285 292 296 299 305 304 303 304 305 303 303 292 287 286 285 285 286 284 281 282 279 281 282 277 278 284 284
212 213 213 213 220 229 230 239 245 248 254 258 262 267 271 277 284 286 287 291 295 293 294 293 297 297 294 289 288 288 293 290 284 281 284 273 272 274 278 277 275 274 275
220 224 226 228 230 238 247 251 256 261 265 268 271 276 281 284 286 288 289 291 292 290 289 291 292 290 293 291 287 287 288 291 281 272 278 268 266 272 272 271 278 276 274
228 234 239 243 242 245 255 259 261 265 270 275 281 286 289 288 287 287 289 291 291 289 289 290 291 292 290 289 287 286 288 287 284 274 281 264 267 271 270 270 265 287 269
228 232 239 245 251 250 252 257 267 280 290 290 294 297 294 293 291 287 287 288 291 290 293 292 289 288 289 289 284 284 287 288 283 275 279 270 264 265 265 255 276 273 256
234 235 237 242 249 254 260 268 270 277 282 285 290 295 297 294 295 294 292 294 295 296 294 291 289 288 286 287 281 280 280 283 277 276 272 265 262 264 268 255 264 265 264
229 233 237 243 249 252 256 260 264 268 273 283 290 292 290 288 289 290 290 291 292 293 291 293 294 289 288 286 282 277 276 279 280 268 262 246 248 256 260 258 257 260 266
223 234 241 243 243 244 247 250 258 269 276 282 288 293 293 294 294 295 294 294 292 290 291 294 295 293 288 284 284 277 270 274 272 276 257 246 242 256 251 247 246 255 259
150 167 183 205 225 239 254 265 273 277 284 288 293 297 299 298 299 299 300 299 297 294 295 297 296 295 290 285 282 282 272 273 276 262 264 254 246 241 259 251 243 243 255
95 106 115 121 193 268 285 287 292 302 307 309 312 311 310 312 311 309 303 299 294 290 290 291 293 291 288 284 279 278 277 277 274 272 262 259 261 262 253 253 253 257 249
Wind_Speed_850mb
36 32 21 20 24 29 38 30 30 30 28 24 22 21 23 36 37 35 29 19 14 17 19 21 20 19 20 20 22 24 24 27 31 30 27 27 24 23 20 22 19 12 16
39 33 25 26 24 31 37 28 24 23 20 17 15 17 20 19 17 20 17 14 13 15 17 17 16 17 16 17 19 21 24 27 31 31 28 26 23 24 19 16 23 20 13
35 34 28 31 30 28 34 26 20 17 14 11 9 10 15 16 14 13 13 11 9 11 13 14 15 14 13 14 15 19 22 24 25 27 27 25 23 24 21 20 21 21 17
32 32 29 33 31 29 26 25 19 15 14 13 10 9 13 15 12 8 6 3 7 11 12 12 16 14 11 11 12 13 15 19 20 23 23 22 22 22 20 19 19 18 18
33 30 29 31 32 26 22 19 18 15 14 12 11 10 11 14 13 9 4 7 8 5 8 9 11 15 14 10 9 8 10 13 16 16 17 19 17 19 18 17 17 18 17
35 29 27 26 29 25 20 17 13 14 12 10 11 11 12 11 8 6 2 4 3 2 5 6 9 10 11 9 5 4 6 9 12 12 13 15 16 16 16 15 15 16 17
36 30 26 23 27 25 19 13 12 12 13 14 13 12 11 9 6 6 4 7 8 6 5 6 6 5 5 4 2 2 3 7 9 10 11 12 13 14 13 12 12 12 14
31 30 26 24 24 22 17 16 15 15 14 14 13 13 11 9 7 5 4 4 5 7 7 8 8 7 6 4 2 3 7 9 8 9 10 9 11 13 14 13 13 12 11
29 27 25 25 23 20 17 17 18 16 15 13 12 11 10 9 8 6 5 5 5 6 5 5 5 5 4 4 4 4 6 6 9 11 9 9 10 14 14 14 14 14 12
28 25 23 24 22 20 17 16 15 15 15 14 9 6 4 3 3 3 3 3 4 5 5 5 6 7 8 9 9 6 4 6 10 11 10 10 10 14 15 15 16 16 16
29 27 24 23 23 21 18 16 14 12 11 7 4 1 1 3 5 6 6 5 7 8 10 11 11 12 12 12 16 11 10 12 14 14 16 15 15 17 18 17 17 16 16
33 32 26 25 24 22 19 16 14 11 8 5 2 1 2 4 6 9 11 12 13 14 14 16 16 15 15 18 16 17 18 20 21 22 23 20 20 20 21 18 15 15 15
27 32 30 28 26 24 20 19 15 11 7 4 2 2 1 5 9 13 15 16 19 21 20 20 20 23 21 22 21 24 24 24 26 27 31 28 26 26 26 21 22 23 20
31 28 31 31 30 26 24 20 15 13 9 7 5 2 2 5 9 12 14 17 19 20 21 23 25 23 26 25 21 20 24 24 29 31 31 34 33 31 33 25 20 27 25
30 30 33 32 29 27 25 22 17 13 11 9 5 3 6 10 12 14 16 18 20 21 23 25 26 27 26 28 27 29 27 28 26 30 30 35 22 23 25 24 28 27 31
32 29 27 29 25 24 23 19 15 15 13 13 10 9 12 13 15 17 19 23 22 24 25 29 31 31 34 35 36 36 36 35 34 35 33 29 33 31 31 30 34 31 30
35 28 30 23 23 24 22 20 20 18 20 19 17 18 19 21 22 23 25 28 27 29 31 34 36 38 40 37 38 37 40 40 41 41 41 39 44 46 42 35 38 37 40
34 35 28 26 26 28 25 24 25 24 26 26 26 26 26 28 30 32 34 34 33 37 39 41 41 45 44 43 45 45 47 49 50 44 41 39 44 44 45 42 41 44 45
33 31 31 31 29 27 26 27 29 30 33 33 35 35 35 36 38 43 46 45 42 45 48 50 50 51 53 51 52 54 53 57 48 45 43 38 47 46 41 44 44 42 36
30 31 30 31 31 27 26 28 31 34 37 39 41 42 42 46 47 49 54 55 53 54 57 58 60 57 59 59 56 59 58 57 53 51 49 46 46 51 48 44 32 36 33
39 36 33 30 27 29 30 32 34 35 35 38 41 43 46 49 55 59 61 64 63 61 61 66 67 67 65 61 59 60 60 56 61 56 53 47 50 50 48 37 41 37 31
49 49 45 42 39 38 39 39 42 45 47 48 48 49 53 55 59 63 67 68 69 67 65 67 70 74 71 64 61 62 63 56 57 60 56 49 42 48 49 36 37 34 37
51 49 47 48 48 45 47 49 53 56 55 55 54 52 51 55 57 57 57 57 60 61 62 62 65 69 71 67 61 58 34 40 45 44 47 42 44 46 48 43 42 39 40
30 31 31 34 33 34 36 37 38 41 45 49 53 55 54 53 51 51 52 52 55 58 64 64 63 66 67 69 63 62 63 70 59 34 47 47 54 58 51 51 46 42 45
16 12 13 14 17 22 26 29 33 39 42 44 44 43 44 46 48 50 49 48 48 52 54 53 56 64 64 64 62 62 65 66 77 69 51 57 62 62 63 64 56 47 52
21 15 12 7 3 6 10 13 17 19 23 26 29 32 35 38 39 38 39 40 41 46 52 56 61 63 62 63 60 60 69 72 70 75 71 66 64 62 63 68 63 58 57
Wind_Direction_850mb
161 162 163 149 133 139 136 132 124 122 121 113 108 106 104 93 109 115 106 92 65 52 38 39 40 45 60 64 65 65 69 70 67 64 61 61 63 74 86 72 68 93 93
156 162 157 145 134 142 146 140 134 131 130 123 111 109 115 106 103 100 98 79 62 30 25 32 45 56 60 65 62 61 66 70 63 60 60 55 62 64 69 67 67 63 79
156 154 153 147 148 146 158 153 138 142 146 147 140 130 132 126 120 119 107 94 54 49 31 31 51 63 66 67 63 52 58 66 65 59 56 53 56 59 63 65 57 59 60
156 153 152 149 148 153 156 171 163 162 164 158 160 163 161 156 142 151 143 58 22 353 7 46 52 75 79 82 77 57 44 58 63 59 53 55 52 55 53 50 52 51 48
154 147 148 154 157 158 156 163 173 169 168 166 159 156 169 168 183 205 249 301 303 323 16 42 69 75 79 81 79 77 45 47 49 53 51 50 46 50 48 46 46 44 39
153 145 144 152 158 157 158 158 157 159 160 154 150 142 146 158 172 189 229 344 40 63 25 67 76 79 82 87 80 41 25 26 33 35 41 41 35 34 28 30 33 35 34
155 151 146 143 157 159 171 171 160 149 138 129 123 127 138 145 148 146 108 70 70 83 58 35 61 71 79 88 95 322 313 338 358 10 19 27 20 17 9 6 4 12 25
161 159 156 148 153 159 161 157 149 145 138 129 117 111 110 112 112 113 102 76 64 59 51 46 46 47 47 45 27 303 298 299 322 337 351 354 1 354 352 347 344 346 0
167 166 168 166 163 160 162 155 149 149 141 131 117 109 103 99 99 98 87 62 50 53 58 51 39 30 17 5 351 321 301 293 295 317 331 335 344 341 335 334 327 326 328
169 173 176 179 175 167 155 155 150 139 140 133 128 102 76 51 36 20 28 33 11 355 346 342 332 321 317 308 310 315 296 303 305 303 313 315 329 333 324 320 317 313 318
177 181 183 186 182 176 168 155 148 148 144 143 139 108 353 319 305 312 285 288 303 304 304 304 303 304 305 302 303 269 272 295 301 308 305 310 314 326 319 310 309 310 313
184 186 187 188 186 183 181 176 170 166 169 178 194 251 311 325 328 316 313 291 283 288 283 285 289 290 293 300 301 301 305 299 303 303 299 298 293 304 309 308 316 321 318
186 196 191 190 187 187 187 186 185 184 188 185 176 149 29 7 0 355 352 347 347 335 315 285 279 285 290 283 301 297 296 294 295 300 298 290 289 285 288 298 294 294 303
195 198 198 197 195 194 191 194 196 205 192 166 162 197 309 341 351 354 348 347 347 347 350 330 328 315 292 287 292 303 297 301 299 293 290 289 287 279 278 281 281 284 285
196 200 202 205 204 202 198 191 194 194 202 204 207 268 306 323 332 331 331 331 334 328 333 331 325 321 309 306 306 303 303 302 303 305 312 307 296 291 290 285 281 284 282
201 206 200 203 202 205 200 203 206 212 218 236 247 262 276 288 299 305 311 311 318 319 318 317 315 313 302 286 285 287 289 290 293 287 289 302 292 285 284 283 287 291 292
206 209 212 209 211 215 218 223 226 232 240 245 254 260 272 279 285 292 296 299 305 304 303 304 305 303 303 292 287 286 285 285 286 284 281 282 279 281 282 277 278 284 284
212 213 213 213 220 229 230 239 245 248 254 258 262 267 271 277 284 286 287 291 295 293 294 293 297 297 294 289 288 288 293 290 284 281 284 273 272 274 278 277 275 274 275
220 224 226 228 230 238 247 251 256 261 265 268 271 276 281 284 286 288 289 291 292 290 289 291 292 290 293 291 287 287 288 291 281 272 278 268 266 272 272 271 278 276 274
228 234 239 243 242 245 255 259 261 265 270 275 281 286 289 288 287 287 289 291 291 289 289 290 291 292 290 289 287 286 288 287 284 274 281 264 267 271 270 270 265 287 269
228 232 239 245 251 250 252 257 267 280 290 290 294 297 294 293 291 287 287 288 291 290 293 292 289 288 289 289 284 284 287 288 283 275 279 270 264 265 265 255 276 273 256
234 235 237 242 249 254 260 268 270 277 282 285 290 295 297 294 295 294 292 294 295 296 294 291 289 288 286 287 281 280 280 283 277 276 272 265 262 264 268 255 264 265 264
229 233 237 243 249 252 256 260 264 268 273 283 290 292 290 288 289 290 290 291 292 293 291 293 294 289 288 286 282 277 276 279 280 268 262 246 248 256 260 258 257 260 266
223 234 241 243 243 244 247 250 258 269 276 282 288 293 293 294 294 295 294 294 292 290 291 294 295 293 288 284 284 277 270 274 272 276 257 246 242 256 251 247 246 255 259
150 167 183 205 225 239 254 265 273 277 284 288 293 297 299 298 299 299 300 299 297 294 295 297 296 295 290 285 282 282 272 273 276 262 264 254 246 241 259 251 243 243 255
95 106 115 121 193 268 285 287 292 302 307 309 312 311 310 312 311 309 303 299 294 290 290 291 293 291 288 284 279 278 277 277 274 272 262 259 261 262 253 253 253 257 249